Location: Brivio
(45.7333°N, 9.4500°E)
Time: 13:22:45
(UTC+00:00)

CZ-4 R/B - Pass Details

Date: 18 October 2019
Orbit: 529 x 601 km, 97.8° (Epoch: 18 November)

Event Time Altitude Azimuth Distance (km) Brightness Sun altitude
Rises 18:17:25 0° 191° (S) 2,796 5.0 -19.1°
Reaches altitude 10° 18:19:45 10° 201° (SSW) 1,911 4.2 -19.5°
Maximum altitude 18:23:27 31° 264° (W) 1,062 3.4 -20.2°
Drops below altitude 10° 18:27:13 10° 327° (NNW) 1,948 4.6 -20.8°
Sets 18:29:37 0° 338° (NNW) 2,860 5.4 -21.2°
